Location: Boissi�res
(45.2500°N, 2.3667°E)
Time: 04:18:21
(UTC+00:00)

Cosmos 1470 Rocket - Pass Details

Date: 03 March 2021
Orbit: 603 x 634 km, 82.5° (Epoch: 13 April)

Event Time Altitude Azimuth Distance (km) Brightness Sun altitude
Rises 18:34:31 0° 180° (S) 2,916 7.0 -10.3°
Reaches altitude 10° 18:36:45 10° 178° (S) 2,012 6.2 -10.7°
Maximum altitude 18:41:11 68° 96° (E) 681 3.5 -11.5°
Drops below altitude 10° 18:45:37 10° 14° (NNE) 2,015 6.1 -12.2°
Sets 18:47:52 0° 12° (NNE) 2,923 6.9 -12.6°
